[[{"header":{"parameterUnit":"m.s-1","parameterCategory":1,"la1":30.2991,"la2":30.254,"lo1":-89.0895,"lo2":-89.0444,"dy":0.0017,"dx":0.0017,"nx":28,"ny":28,"refTime":"2023-07-20T03:00:00:Z","depth":0,"parameterNumber":2,"parameterNumberName":"U-component_of_WINDS"},"data":[0,0,0,0,0,0,0,0,0,0,0,0,0,0,0,0,0,0,0,0,0,0,0,0,0,0,0,0,0,0,0,0,0,0,0,0,0,0,0,0,0,0,0,0,0,0,0,0,0,0,0,0,0,0,0,0,0,0,2.9728,2.9729,0,2.9776,2.9776,2.9777,2.9697,2.9695,2.9692,2.9689,2.9741,2.9745,2.9749,0,0,0,0,0,0,0,0,0,0,0,0,0,2.9569,2.9572,2.9728,2.9729,2.9729,2.9776,2.9776,2.9777,2.9698,2.9695,2.9691,2.9688,2.974,2.9745,2.9749,0,0,0,0,0,0,0,0,0,0,0,0,0,2.963,2.9573,2.9728,2.9695,2.9693,2.9775,2.9776,2.9777,2.9699,2.9694,2.969,2.9687,2.9739,2.9744,2.975,2.9868,0,0,2.9768,2.9771,0,0,0,0,0,0,0,0,2.9626,2.9636,2.97,2.9698,2.9695,2.9726,2.9739,2.9808,2.97,2.9697,2.9689,2.9685,2.974,2.9745,2.9763,2.987,2.9872,2.9769,2.9772,2.9775,2.9776,0,0,0,0,0,0,0,2.9622,2.9633,2.9747,2.9701,2.9698,2.9678,2.9682,2.9752,2.9741,2.9697,2.9691,2.9697,2.9738,2.9758,2.9764,2.9873,2.9768,2.9774,2.9777,2.9779,3.0074,3.0078,0,0,0,0,0,0,2.9622,2.963,2.9745,2.9748,2.965,2.9684,2.9689,2.9721,2.974,2.9738,2.9701,2.9693,2.975,2.9757,2.9766,2.9902,2.9775,2.978,2.9783,3.007,3.0075,3.008,0,0,0,0,0,0,2.9619,2.9633,2.9744,2.9688,2.97,2.9691,2.9727,2.9724,2.9743,2.9743,2.974,2.9723,2.9747,2.9757,2.9842,2.9902,2.9783,2.9788,3.0065,3.0071,3.0077,3.0177,0,0,0,0,0,0,2.9614,2.9632,2.9677,2.9689,2.9704,2.9819,2.9731,2.9727,2.9753,2.9744,2.9763,2.9762,2.9745,2.9833,2.9847,2.9908,2.9793,3.0059,3.0068,3.0075,3.0168,3.0186,3.0201,0,0,0,0,0,2.9609,2.9705,2.968,2.9694,2.976,2.9823,2.9831,2.9808,2.9759,2.9803,2.9802,2.9762,2.9893,2.9843,2.9858,2.9922,3.0055,3.0065,3.0075,3.0161,3.0183,3.0201,0,0,0,0,0,0,2.9703,2.9706,2.9679,2.9781,2.9802,2.981,2.9866,2.9832,2.9869,2.9859,2.9829,2.9834,2.9924,2.9931,2.9874,3.0034,2.9966,2.9979,3.0026,3.0047,3.0063,3.006,2.9797,0,0,0,0,0,2.9735,2.9786,2.9786,2.9877,2.9889,2.9875,2.9902,2.9882,2.9903,2.9912,2.9917,2.9939,2.9985,3.0016,3.0059,3.0168,3.017,3.0219,3.0236,3.0249,3.0261,3.0316,3.0338,3.0111,3.0111,3.0111,0,0,2.9804,2.9812,2.9846,2.9896,2.991,2.9963,2.9884,2.9944,2.9983,2.9921,3.0,3.0005,3.0027,3.0124,3.0167,3.0133,3.0324,3.0262,3.0273,3.0277,3.0329,3.035,3.0369,3.0118,3.0117,3.0116,0,0,2.9955,2.9966,3.0041,3.0056,3.0076,3.0066,3.0084,3.0095,3.0095,3.0173,3.0127,3.0172,3.0253,3.027,3.029,3.0441,3.0405,3.0456,3.0543,3.0597,3.0615,3.063,3.0683,3.0702,3.0468,3.0468,3.0468,0,3.0037,3.0115,3.0085,3.0147,3.0169,3.0113,3.0188,3.0203,3.0238,3.0254,3.0215,3.0312,3.0324,3.0422,3.0458,3.0476,3.0495,3.0454,3.0614,3.063,3.0644,3.0693,3.0713,3.0474,3.0473,3.0473,3.0472,0,3.0214,3.0268,3.0326,3.0357,3.0386,3.0455,3.0434,3.0467,3.0442,3.0436,3.0515,3.0526,3.0568,3.0589,3.0568,3.0684,3.0661,3.0619,3.055,3.0672,3.0718,3.0737,3.0482,3.048,3.0479,3.0477,0,0,3.0429,3.0439,3.0461,3.0472,3.0489,3.053,3.0595,3.0633,3.0661,3.0686,3.0738,3.0805,3.0764,3.0786,3.0765,3.0813,3.0929,3.0764,3.0764,3.0793,3.1055,3.1086,3.1109,3.0904,3.0908,3.0911,3.1052,0,3.0577,3.0687,3.066,3.0769,3.0817,3.0762,3.0817,3.0833,3.0828,3.0868,3.0862,3.0909,3.0853,3.0865,3.0909,3.0906,3.0981,3.0895,3.0953,3.0955,3.0949,3.1133,3.1168,3.1301,3.107,3.1073,3.1075,0,3.0766,3.0794,3.0908,3.0912,3.0931,3.0982,3.1013,3.1052,3.1067,3.106,3.1082,3.105,3.1113,3.1042,3.1127,3.1069,3.109,3.1092,3.1096,3.1101,3.1023,3.1142,3.1343,3.1363,3.1104,3.1102,3.11,0,3.091,3.0976,3.1051,3.1063,3.1071,3.1107,3.1112,3.1123,3.1147,3.1175,3.1189,3.1225,3.1244,3.1272,3.125,3.1201,3.1337,3.1266,3.1332,3.1333,3.1365,3.1363,3.1571,3.1379,3.1379,3.1379,3.1378,0,3.1078,3.1149,3.1115,3.1162,3.1238,3.1205,3.1282,3.1281,3.1291,3.1335,3.129,3.1333,3.1302,3.1342,3.1325,3.1396,3.1406,3.1401,3.1396,3.1405,3.1406,3.1419,3.1409,3.1384,3.1383,3.1382,3.1381,0,3.1252,3.1232,3.131,3.1309,3.131,3.1367,3.1366,3.1408,3.1397,3.1454,3.1466,3.145,3.1494,3.1474,3.1522,3.151,3.1601,3.1584,3.1596,3.1591,3.1658,3.1652,3.1883,3.191,3.1701,3.1703,3.1705,0,3.1362,3.1414,3.1417,3.1443,3.145,3.1492,3.1515,3.1483,3.1509,3.1528,3.1568,3.1607,3.1637,3.171,3.1703,3.1738,3.1721,3.1799,3.1726,3.1732,3.1721,3.1717,3.1722,3.1814,3.1817,3.1818,3.182,0,3.1557,3.1542,3.1576,3.1606,3.1633,3.1656,3.1674,3.1698,3.1666,3.1697,3.174,3.1763,3.1809,3.1849,3.1878,3.1883,3.1847,3.1842,3.186,3.187,3.1874,3.1871,3.1635,3.1838,3.1836,3.1835,3.1834,3.1833,3.1701,3.1743,3.1751,3.1789,3.1798,3.1816,3.1854,3.1846,3.1881,3.1915,3.1894,3.1944,3.1954,3.199,3.2,3.2038,3.2007,3.2033,3.2039,3.2046,3.2054,3.1867,3.2044,3.2043,3.2043,3.2042,3.2042,0,3.1892,3.1893,3.1928,3.1953,3.1982,3.1942,3.1959,3.1987,3.2031,3.2043,3.2072,3.212,3.2157,3.2151,3.2184,3.2216,3.22,3.2226,3.2223,3.2224,3.208,3.2061,3.2238,3.2238,3.2238,3.2238,3.2238,3.2238,3.1995,3.2064,3.205,3.2123,3.2123,3.217,3.2183,3.2198,3.2207,3.2262,3.2291,3.2286,3.229,3.2323,3.2354,3.2351,3.2365,3.2398,3.2389,3.2254,3.2235,3.2216,3.2198,3.2401,3.2401,3.2529,3.253,3.2531]},{"header":{"parameterUnit":"m.s-1","parameterCategory":1,"la1":30.2991,"la2":30.254,"lo1":-89.0895,"lo2":-89.0444,"dy":0.0017,"dx":0.0017,"nx":28,"ny":28,"refTime":"2023-07-20T03:00:00:Z","depth":0,"parameterNumber":3,"parameterNumberName":"V-component_of_WINDS"},"data":[0,0,0,0,0,0,0,0,0,0,0,0,0,0,0,0,0,0,0,0,0,0,0,0,0,0,0,0,0,0,0,0,0,0,0,0,0,0,0,0,0,0,0,0,0,0,0,0,0,0,0,0,0,0,0,0,0,0,5.9929,5.993,0,6.0007,6.0008,6.0009,5.9947,5.9944,5.9941,5.9939,6.0013,6.0018,6.0022,0,0,0,0,0,0,0,0,0,0,0,0,0,5.9718,5.9722,5.9929,5.993,5.9931,6.0007,6.0008,6.0009,5.9947,5.9944,5.9941,5.9938,6.0012,6.0017,6.0022,0,0,0,0,0,0,0,0,0,0,0,0,0,5.9804,5.9724,5.9929,5.9909,5.9908,6.0007,6.0008,6.0009,5.9948,5.9944,5.994,5.9936,6.001,6.0017,6.0023,6.0143,0,0,6.0044,6.0046,0,0,0,0,0,0,0,0,5.98,5.9812,5.9911,5.9911,5.991,5.9963,5.9961,6.0054,5.9949,5.9933,5.9939,5.9934,6.0,6.0007,6.003,6.0147,6.015,6.0044,6.0048,6.0051,6.0053,0,0,0,0,0,0,0,5.9794,5.9808,5.996,5.9913,5.9912,5.9894,5.9902,5.9978,5.9987,5.9934,5.9929,5.994,5.9998,6.0024,6.0031,6.0151,6.0044,6.005,6.0054,6.0057,6.0367,6.0371,0,0,0,0,0,0,5.979,5.9804,5.9957,5.9962,5.9844,5.9901,5.991,5.995,5.9986,5.9988,5.9943,5.9937,6.0014,6.0024,6.0034,6.0175,6.0051,6.0057,6.0061,6.0363,6.0368,6.0373,0,0,0,0,0,0,5.9786,5.9805,5.9954,5.9882,5.9899,5.9909,5.9954,5.9954,5.9979,5.9993,5.9994,5.9968,6.0012,6.0024,6.0116,6.0176,6.006,6.0066,6.0358,6.0364,6.037,6.0459,0,0,0,0,0,0,5.978,5.9804,5.9851,5.9883,5.9904,6.0038,5.9958,5.9958,5.9991,5.9984,6.0017,6.0018,6.0009,6.0107,6.0123,6.0183,6.0072,6.0352,6.0361,6.0368,6.0451,6.0467,6.0482,0,0,0,0,0,5.9773,5.9873,5.9854,5.9873,5.9964,6.0042,6.0053,6.0042,5.9997,6.0043,6.0052,6.0017,6.0167,6.0117,6.0134,6.0198,6.0349,6.0358,6.0368,6.0444,6.0464,6.0482,0,0,0,0,0,0,5.9846,5.9877,5.9856,5.997,6.0004,6.0031,6.009,6.0065,6.0111,6.0101,6.0084,6.0092,6.0189,6.0202,6.0145,6.0314,6.025,6.0264,6.0302,6.0322,6.0337,6.0331,6.0077,0,0,0,0,0,5.9876,5.9938,5.9961,6.0058,6.0077,6.008,6.0114,6.0103,6.0136,6.015,6.0165,6.0197,6.0251,6.0287,6.0338,6.0452,6.0457,6.0504,6.052,6.0533,6.0544,6.0603,6.0623,6.0404,6.0404,6.0404,0,0,5.9937,5.9961,6.0002,6.0074,6.0099,6.0161,6.0093,6.0163,6.0208,6.016,6.0247,6.026,6.0294,6.0397,6.0443,6.0412,6.0606,6.0545,6.0555,6.056,6.0615,6.0635,6.0654,6.041,6.0409,6.0408,0,0,6.008,6.0106,6.0189,6.0215,6.0254,6.0256,6.0276,6.0307,6.0313,6.0402,6.0366,6.0418,6.0513,6.0538,6.0563,6.0714,6.0682,6.073,6.0812,6.0869,6.0886,6.0901,6.0953,6.0972,6.0742,6.0742,6.0742,0,6.015,6.0246,6.0234,6.0307,6.0338,6.0298,6.038,6.0406,6.0458,6.048,6.0444,6.056,6.0581,6.0688,6.0724,6.0747,6.0766,6.0726,6.0885,6.09,6.0914,6.0963,6.0982,6.0748,6.0747,6.0747,6.0746,0,6.0329,6.0395,6.0457,6.051,6.0549,6.0626,6.0623,6.0663,6.0648,6.0652,6.074,6.0764,6.0817,6.0842,6.0828,6.0946,6.0925,6.0888,6.0823,6.0941,6.0986,6.1005,6.0755,6.0754,6.0752,6.0751,0,0,6.052,6.0566,6.0588,6.0611,6.065,6.07,6.0773,6.0827,6.086,6.0898,6.0957,6.1037,6.1002,6.103,6.1018,6.1069,6.1183,6.1025,6.1025,6.1051,6.1312,6.1339,6.1361,6.1163,6.1167,6.117,6.1308,0,6.0663,6.0794,6.0785,6.0906,6.0965,6.0928,6.0991,6.102,6.1026,6.1075,6.108,6.1137,6.1088,6.1104,6.1153,6.1159,6.1235,6.1149,6.1216,6.1218,6.1207,6.1385,6.1414,6.1544,6.1326,6.1329,6.1332,0,6.0848,6.0893,6.1021,6.1049,6.1073,6.1131,6.1178,6.1227,6.1258,6.1258,6.129,6.1268,6.1339,6.1274,6.137,6.1312,6.1338,6.1345,6.135,6.1354,6.1281,6.1392,6.1585,6.1604,6.136,6.1357,6.1355,0,6.0972,6.1064,6.1152,6.1173,6.1208,6.1249,6.1265,6.1293,6.1325,6.1366,6.1386,6.1434,6.1459,6.1496,6.1487,6.144,6.1584,6.1518,6.1584,6.1584,6.1615,6.1613,6.1813,6.1635,6.1635,6.1634,6.1634,0,6.1132,6.1211,6.1208,6.1262,6.1348,6.1335,6.142,6.1431,6.1456,6.1509,6.1479,6.1529,6.1515,6.1564,6.1558,6.1636,6.1649,6.1649,6.1646,6.1651,6.165,6.1667,6.1657,6.1639,6.1638,6.1637,6.1636,0,6.1285,6.1286,6.1379,6.1405,6.1413,6.1476,6.1496,6.1546,6.1548,6.1616,6.1631,6.1635,6.169,6.1685,6.1748,6.1743,6.184,6.1827,6.183,6.1826,6.1891,6.1885,6.2108,6.2135,6.1941,6.1943,6.1945,0,6.1386,6.1446,6.1478,6.1513,6.1532,6.1588,6.162,6.1609,6.1644,6.1683,6.1727,6.178,6.1822,6.1912,6.1919,6.1965,6.1952,6.2027,6.1959,6.1961,6.195,6.1946,6.1951,6.204,6.2042,6.2044,6.2045,0,6.1564,6.1562,6.1611,6.166,6.17,6.1738,6.1772,6.1801,6.1793,6.1834,6.1891,6.1923,6.1987,6.2039,6.2083,6.2096,6.2069,6.2067,6.2084,6.2089,6.2087,6.2087,6.1865,6.2061,6.206,6.2059,6.2058,6.2057,6.1693,6.1743,6.1774,6.1829,6.1854,6.1886,6.1933,6.1942,6.199,6.2042,6.2032,6.2095,6.2122,6.2179,6.2197,6.2244,6.2217,6.2243,6.2249,6.2255,6.2261,6.2081,6.2253,6.2252,6.2252,6.2251,6.2251,0,6.1868,6.1885,6.1936,6.1985,6.2028,6.2,6.2036,6.2073,6.213,6.2158,6.22,6.2264,6.2314,6.2324,6.2371,6.2407,6.2396,6.242,6.2416,6.2419,6.2284,6.2264,6.2428,6.2428,6.2428,6.2428,6.2428,6.2428,6.1964,6.2047,6.2048,6.2142,6.2158,6.2221,6.2244,6.2272,6.2295,6.2368,6.241,6.2417,6.2437,6.2485,6.2529,6.253,6.2548,6.2577,6.2573,6.2447,6.2429,6.2412,6.2392,6.2581,6.2582,6.2704,6.2705,6.2706]}]]